Regional Weather Roundup
Issued by NWS Goodland, KS

Home | Current Version | Previous Version | Text Only | Print | Product List | Glossary Off
Versions: 1 2 3 4 5 6 7 8 9 10 11 12 13 14 15 16 17 18 19 20 21 22 23 24 25 26 27 28 29 30 31 32 33 34 35 36 37 38 39 40 41 42 43 44 45 46 47 48 49 50

000
ASUS43 KGLD 200008
RWRGLD

GOODLAND FORECAST AREA HOURLY WEATHER ROUNDUP
NATIONAL WEATHER SERVICE GOODLAND KS
500 PM MST THU JAN 19 2017

...OFFICIAL OBSERVATIONS...

CITY           SKY/WX    TMP DP  RH WIND       PRES   REMARKS
GOODLAND KS    CLOUDY    36  35  96 SE7       29.53S
HILL CITY KS   MOCLDY    43  41  93 E7        29.58S
IMPERIAL NEB   FOG       35  34  96 SE10      29.54S VSB 1/4
MCCOOK NEB     CLOUDY    36  36 100 CALM      29.56F FOG
AKRON CO       CLEAR     41  24  51 S3        29.51S
BURLINGTON CO  CLEAR     40  29  64 E5        29.53R
LIMON CO       CLEAR     37  19  48 CALM      29.52S
$$

...UNOFFICIAL OBSERVATIONS...

CITY           SKY/WX    TMP DP  RH WIND       PRES   REMARKS
NORTON KS      CLOUDY    39  36  87 E5        29.57F
KIT CARSON CO    N/A     44  29  54 CALM        N/A
YUMA CO        FAIR      34  25  69 E5        29.51F
$$



USA.gov is the U.S. government's official web portal to all federal, state and local government web resources and services.